Regional Weather Roundup
Issued by NWS

Home | Current Version | Previous Version | Text Only | Print | Product List | Glossary Off
Versions: 1 2 3 4 5 6 7 8 9 10 11 12 13 14 15 16 17 18 19 20 21 22 23 24 25 26 27 28 29 30 31 32 33 34 35 36 37 38 39 40 41 42 43 44 45 46 47 48 49 50

000
ASUS43 KLMK 280510
RWRKY
KENTUCKY REGIONAL WEATHER ROUNDUP
NATIONAL WEATHER SERVICE LOUISVILLE KY
100 AM EDT SAT MAR 28 2015

NOTE "FAIR" INDICATES FEW OR NO CLOUDS BELOW 12,000 FEET
WITH NO SIGNIFICANT WEATHER AND/OR OBSTRUCTIONS TO VISIBILITY.

KYZ001>023-026-027-061>063-070>075-280600-
WESTERN AND SOUTH CENTRAL KENTUCKY

CITY           SKY/WX    TMP DP  RH WIND       PRES   REMARKS
PADUCAH        CLEAR     31  19  61 W3        30.19R
HENDERSON      CLEAR     32  18  55 N10       30.19S WCI  24
OWENSBORO      CLEAR     31  18  58 N7        30.19R WCI  24
HOPKINSVILLE   CLOUDY    35  21  57 NW6       30.16S WCI  29
BOWLING GREEN  PTCLDY    33  19  56 N5        30.16R WCI  29
GLASGOW        CLOUDY    32  23  70 N9        30.13S WCI  24
$$

KYZ024-025-028>034-038-045-046-053-280600-
NORTH CENTRAL KENTUCKY

CITY           SKY/WX    TMP DP  RH WIND       PRES   REMARKS
LOUISVILLE/SDF PTCLDY    30  15  53 N9        30.16R WCI  22
LOUISVILLE/LOU PTCLDY    29  15  56 N10       30.16R WCI  20
FORT KNOX      MOCLDY    30  18  62 N10       30.12S WCI  21
$$

KYZ035>037-039>044-047>052-055>060-089>105-280600-
NORTHEAST KENTUCKY

CITY           SKY/WX    TMP DP  RH WIND       PRES   REMARKS
LEXINGTON      CLOUDY    26  16  65 NW7       30.10S WCI  18
COVINGTON      CLOUDY    27  11  51 NW14      30.11S WCI  16
FRANKFORT      CLEAR     28  16  60 N8        30.11R WCI  20
$$

KYZ054-064>069-076>088-106>120-280600-
SOUTHEAST KENTUCKY

CITY           SKY/WX    TMP DP  RH WIND       PRES   REMARKS
JACKSON        CLOUDY    29  16  58 VRB7      30.05R WCI  22
LONDON         CLOUDY    31  19  61 N7        30.06S WCI  24
SOMERSET       CLOUDY    32  21  64 N6        30.10S WCI  26
MIDDLESBORO    FLURRIES  32  26  76 N12       30.05R WCI  23
MONTICELLO     NOT AVBL
$$



USA.gov is the U.S. government's official web portal to all federal, state and local government web resources and services.